STARLINK-1483, 45743

Orbit data source: Space-Track

STARLINK-1483, 45743 is a payload satellite owned by SpaceX/Seattle (US) in LEO that was launched on Sat, 13 Jun 2020 UTC via an FALCON 9 launch vehicle from the Air Force Eastern Test Range (AFETR). Payloads include a variety of satellites, spacecraft, and rockets equipped with specific instruments for various scientific and technological missions. These include communications satellites like Starlink; space stations such as the ISS; scientific satellites like the Hubble; Earth observation satellites from companies like Planet Labs, Umbra, and HawkEye 360; GPS; miniature CubeSats for education and research; and military/defense satellites.

Not visible in the next 10 days
STARLINK-1483 details
Identifier
45743, 2020-038P
Orbit
LEO
Last TLE update3 hours ago
Origin
Flag of USSpaceX/Seattle (US)
ManufacturerSpaceX/Seattle
MissionPartially operational Commercial Communications
Bus & MotorSTARLINK, Unknown motor
Mass260 kg wet, ~248 kg dry
Launch date (UTC)
2020-06-13 (4 years ago)
Launch vehicle
FALCON 9
Launch site
Air Force Eastern Test Range (AFETR)
Object type
Payload
Rocket body
Debris
Shape & HBRBox + 1 Pan, 8.86 m
Radar Cross Section13.562 m², Large (>1 m²)

Expand to show TLE details & history

TLE from 3 hours ago
0 STARLINK-1483
1 45743U 20038P   24340.25001157  .00567673  14543-3  13449-2 0  9997
2 45743  53.0340  56.4923 0006540 355.1292 115.3082 15.96159115249076
Epoch: 2024-12-05T06:00Z
Definitive object data (Epoch: 2024-12-05T06:00:00.999Z)
Latitude48.60057°
Longitude13.86588°
Altitude292.413 km
Speed7.737 km/s
True Right ascension11h 53m 36s
True Declination48° 25' 05"
Sunlit
Object was in daylight at TLE epoch
Visualization TLE readout
Latitude22.37284°
Longitude53.33286°
Altitude289.338 km
Speed7.735 km/s
Apparent Right ascension16h 32m 00s
Apparent Declination-9° 37' 21"
Sunlit
Object is in daylight
Visualization observer readout
Local Sidereal Time07:08:49
Azimuth59.847° ENE
Elevation-43.886°
Doppler factor1
Orbital elements
Apogee altitude289.729 km
Perigee altitude281.013 km
Semi-major axis6,663.508 km
Eccentricity0.000654
Inclination53.034°
RAAN56.4923°
Arg. of periapsis355.1292°
True anomaly115.37593°
Mean anomaly115.3082°
Eccentric anomaly115.34207°
Mean motion3.99015 °/min
BSTAR0.0013449
Orbital period90.22 mins
Loading maneuver chart data...
Loading historical data...
Loading historical data...
Loading historical data...
Loading historical data...
Loading historical data...
Loading historical data...
Loading historical data...

STARLINK-1483 Visibility forecast

Observer location: undefined°, undefined

STARLINK-1483 is not visible in the next 10 days
Span
Click to sort rows by Start time (UTC) header in descending order
Start Az.
Max El. time (UTC)
Max El. Az.
Max El.
End time (UTC)
End Az.
|